Home   Weather   Aix-en-Provence   Past weeks

Flag for France Past Weather in Aix-en-Provence, Provence-Alpes-Côte d'Azur, France — Yesterday and Last 2 Weeks

45 °F


Feels Like: 42 °F
Forecast: 54 / 64 °F
Wind: 5 mph from Southeast

Location: Marseille / Marignane

Current Time: Oct 22, 2016 at 5:35:07 AM

Latest Report: Oct 22, 2016 at 5:00 AM

Visibility: 10 mi

Pressure: 29.92 "Hg

Humidity: 81%

Dew Point: 39 °F

Location of Aix-en-ProvenceLocation

Past Weather in Aix-en-Provence — Graph


Aix-en-Provence Temperature Yesterday

Maximum temperature yesterday: 66 °F (at 3:30 PM)
Minimum temperature yesterday: 43 °F (at 6:30 AM)
Average temperature yesterday: 54 °F

High & Low Weather Summary for the Past Weeks

High73 °F (Oct 16, 1:00 PM)100% (Oct 7, 6:30 AM)30.21 "Hg (Oct 7, 6:30 AM)
Low43 °F (Oct 21, 6:30 AM)35% (Oct 8, 4:00 PM)29.50 "Hg (Oct 14, 6:30 AM)
Average59 °F67%29.96 "Hg
* Reported Oct 7 4:00 AM — Oct 22 4:00 AM, Aix-en-Provence, Weather by CustomWeather, © 2016

Note: Actual official high and low records may vary slightly from our data, if they occured in-between our weather recording intervals... More about our weather records


Aix-en-Provence Weather History for the Previous 24 Hours

Scroll right to see more
Time TempWeatherWind HumidityBarometerVisibility
4:00 AM
Sat, Oct 22
45 °FClear.6 mph87%29.92 "Hg10 mi
3:30 AM45 °FClear.5 mph87%29.92 "Hg10 mi
3:00 AM45 °FClear.6 mph87%29.92 "Hg10 mi
2:00 AM45 °FClear.2 mph87%29.92 "Hg10 mi
1:30 AM45 °FClear.1 mph87%29.92 "Hg10 mi
1:00 AM45 °FClear.6 mph87%29.95 "Hg10 mi
12:30 AM46 °FClear.2 mph87%29.95 "Hg10 mi
12:00 AM46 °FClear.2 mph87%29.92 "Hg10 mi
11:30 PM
Fri, Oct 21
48 °FClear.2 mph82%29.92 "Hg10 mi
11:00 PM54 °FClear.7 mph77%29.92 "Hg10 mi
10:30 PM54 °FClear.8 mph72%29.92 "Hg10 mi
10:00 PM54 °FClear.7 mph72%29.92 "Hg10 mi
9:30 PM55 °FClear.6 mph67%29.92 "Hg10 mi
9:00 PM57 °FClear.8 mph63%29.92 "Hg10 mi
8:30 PM57 °FClear.8 mph63%29.92 "Hg10 mi
8:00 PM59 °FClear.9 mph59%29.92 "Hg10 mi
7:30 PM59 °FClear.10 mph55%29.92 "Hg10 mi
7:00 PM61 °FClear.15 mph52%29.89 "Hg10 mi
6:30 PM61 °FSunny.14 mph55%29.89 "Hg10 mi
6:00 PM63 °FSunny.15 mph52%29.89 "Hg10 mi
5:30 PM64 °FPassing clouds.15 mph49%29.89 "HgN/A
5:00 PM64 °FPassing clouds.15 mph49%29.89 "HgN/A
4:30 PM64 °FSunny.14 mph49%29.89 "Hg10 mi
4:00 PM66 °FSunny.12 mph43%29.89 "Hg10 mi
3:30 PM66 °FSunny.9 mph43%29.89 "Hg10 mi
3:00 PM64 °FPassing clouds.8 mph43%29.89 "HgN/A
2:30 PM64 °FSunny.6 mph43%29.89 "Hg10 mi
2:00 PM63 °FSunny.6 mph45%29.92 "Hg10 mi
1:30 PM61 °FPassing clouds.6 mph45%29.92 "HgN/A
1:00 PM61 °FSunny.6 mph48%29.92 "Hg10 mi
12:30 PM59 °FPassing clouds.3 mph51%29.92 "HgN/A
12:00 PM57 °FPassing clouds.6 mph55%29.92 "HgN/A
11:30 AM55 °FPassing clouds.3 mph59%29.92 "HgN/A
11:00 AM54 °FPassing clouds.5 mph63%29.92 "HgN/A
10:30 AM52 °FPassing clouds.3 mph67%29.92 "HgN/A
10:00 AM50 °FPassing clouds.5 mph71%29.92 "HgN/A
9:30 AM48 °FPassing clouds.3 mph76%29.92 "HgN/A
9:00 AM45 °FSunny.2 mph81%29.92 "Hg10 mi
8:30 AM43 °FSunny.No wind81%29.92 "Hg10 mi
8:00 AM43 °FClear.No wind81%29.92 "Hg10 mi
7:30 AM43 °FClear.3 mph87%29.92 "Hg10 mi
7:00 AM43 °FClear.3 mph81%29.92 "Hg10 mi
6:30 AM43 °FClear.2 mph81%29.89 "Hg10 mi
6:00 AM45 °FClear.6 mph76%29.89 "Hg10 mi
5:30 AM46 °FClear.6 mph82%29.89 "Hg10 mi
5:00 AM45 °FClear.No wind87%29.89 "Hg10 mi
Weather by CustomWeather, © 2016

See weather overviewHow to use our weather pages